Location: Bay Harbour
(38.2612°N, 75.2555°W)
Time: 01:48:01
(UTC+00:00)

Atlas Centaur 2 - Pass Details

Date: 29 October 2020
Orbit: 459 x 1309 km, 30.4° (Epoch: 02 December)

Event Time Altitude Azimuth Distance (km) Brightness Sun altitude
Rises 22:18:03 0° 243° (WSW) 3,952 7.8 -3.4°
Reaches altitude 10° 22:20:51 10° 237° (WSW) 3,091 6.6 -4.0°
Maximum altitude 22:28:16 44° 168° (SSE) 1,695 3.8 -5.4°
Drops below altitude 10° 22:36:14 10° 100° (E) 3,318 4.7 -6.9°
Enters shadow 22:37:30 - 98° (E) 3,699 4.9 -7.1°
